Location: Stara Lesna
(49.1528°N, 20.2911°E)
Time: 09:47:15
(UTC+02:00)

Cosmos 2369 Rocket - Pass Details

Date: 21 September 2019
Orbit: 829 x 852 km, 71.0° (Epoch: 13 October)

Event Time Altitude Azimuth Distance (km) Brightness Sun altitude
Exits shadow 03:52:43 60° 242° (WSW) 968 2.1 -24.1°
Maximum altitude 03:53:39 73° 300° (WNW) 889 2.1 -23.9°
Drops below altitude 10° 03:59:21 10° 26° (NNE) 2,476 5.4 -23.1°
Sets 04:01:49 0° 28° (NNE) 3,411 6.3 -22.8°
